Volver al catálogo

COSMOS 2251 DEB

ActivoLEO
NORAD 35993·DEBRIS·🇷🇺 Russia

Lanzado Jun 16, 1993 desde Plesetsk Cosmodrome

Loading…

Próximos Pases (próximas 24 horas)

TLE

ActualizadoSource: Space-Track

Época: Sep 13, 2026, 02:29 UTC

1 35993U 93036AWK 26256.10370393  .00001848  00000-0  33259-3 0  9993
2 35993  74.0138 163.2304 0030449 277.8983  81.8730 14.67079490644645

Sigue COSMOS 2251 DEB en tiempo real con AllMySat

Download on the App Store